sat.trackr.live / text

‹ back to catalog

GALAXY 37 (G-37)

NORAD 57493 · 2023-112A

PAYLOAD ACTIVE UNKNOWN

§ Identity

Operator
Country
ITSO
Launch date
2023-08-03
Launch site
AFETR
Launch vehicle
Mass (kg)
RCS (m²)

Purposes: comms

External: N2YO · Heavens-Above · Gunter

§ Orbital elements

Epoch: 2026-09-19T16:22:02.292672Z

Period
1,436.09 min
Inclination
0.0145°
Eccentricity
0.0002036
Mean motion
1.00272043 rev/d
Perigee alt
35,777.9 km
Apogee alt
35,795.1 km
Semi-major
42,164.7 km
B*
0.0000e+0
RAAN
131.0684°
Arg perigee
48.2211°
Mean anomaly
297.8149°
Rev number
1,149

§ Raw data

GALAXY 37 (G-37)1 57493U 23112A   26262.68197098  .00000044  00000+0  00000+0 0  99992 57493   0.0145 131.0684 0002036  48.2211 297.8149  1.00272043 11496

JSON: /api/v1/satellites/57493 · /tle

For live sub-satellite position, see the globe view (requires WebGL).

§ Visibility from observer

Set your observer location to see the next 7 days of passes ≥ 10°. The values pass through the URL so the page stays shareable.

No JS? Fill the form by hand. The geolocation button needs JavaScript.